Stations météo

réclame
Mon MeteoGroup
Bologna/Borgo Panigale, Italie (16140): Température de l'air & dewpoint: 14.06.2018 07:00:00 - 20.06.2018 07:00:00 (CEST)Bologna/Borgo Panigale, Italie (16140): Vitesse du vent: 14.06.2018 07:00:00 - 20.06.2018 07:00:00 (CEST)Bologna/Borgo Panigale, Italie (16140): Direction du vent: 14.06.2018 07:00:00 - 20.06.2018 07:00:00 (CEST)Bologna/Borgo Panigale, Italie (16140): reduced air pressure: 14.06.2018 07:00:00 - 20.06.2018 07:00:00 (CEST)Bologna/Borgo Panigale, Italie (16140): visibility: 14.06.2018 07:00:00 - 20.06.2018 07:00:00 (CEST)
Date & Time tt [°C] td [°C] ff [km/h] ff [knt] dd ppp [hPa] vv [km]
20.06.2018 07:00:00 19,0 13,0 11 6 SW - 10
20.06.2018 06:00:00 18,0 13,0 8 4 SW - 10
20.06.2018 05:00:00 17,9 12,7 9 5 SW 1021,0 10
20.06.2018 04:00:00 19,0 13,0 13 7 SSW - 10
20.06.2018 03:00:00 19,0 13,0 13 7 SSW - 10
20.06.2018 02:00:00 19,6 13,3 15 8 SSW 1021,0 10
20.06.2018 01:00:00 20,0 13,0 8 4 SSW - 10
20.06.2018 00:00:00 21,0 14,0 9 5 SSW - 10
19.06.2018 23:00:00 22,7 13,6 4 2 SSW 1020,0 10
19.06.2018 22:00:00 22,0 13,0 8 4 SE - 10
19.06.2018 21:00:00 26,0 13,0 8 4 E - 10
19.06.2018 20:00:00 27,7 12,8 8 4 E 1019,0 10
19.06.2018 19:00:00 29,0 12,0 15 8 E - 10
19.06.2018 18:00:00 29,0 12,0 13 7 E - 10
19.06.2018 17:00:00 29,6 13,7 13 7 ENE 1019,0 10
19.06.2018 16:00:00 30,0 14,0 13 7 ENE - 10
19.06.2018 15:00:00 30,0 14,0 9 5 E - 10
19.06.2018 14:00:00 29,1 16,7 11 6 ENE 1020,0 10
19.06.2018 13:00:00 29,0 15,0 11 6 ESE - 10
19.06.2018 12:00:00 28,0 18,0 9 5 E - 10
19.06.2018 11:00:00 28,2 17,4 2 1 - 1021,0 10
19.06.2018 10:00:00 26,0 17,0 4 2 - - 10
19.06.2018 09:00:00 23,0 16,0 5 3 SSW - 10
19.06.2018 08:00:00 21,0 16,1 11 6 SW 1021,0 10
19.06.2018 07:00:00 19,0 15,0 13 7 SW - 10
19.06.2018 06:00:00 18,0 15,0 8 4 W - 10
19.06.2018 05:00:00 18,9 14,7 9 5 SW 1019,0 35
19.06.2018 04:00:00 19,0 15,0 11 6 SSW - 10
19.06.2018 03:00:00 20,0 15,0 11 6 SW - 10
19.06.2018 02:00:00 20,2 15,2 15 8 SSW 1019,0 30
19.06.2018 01:00:00 21,0 16,0 15 8 SSW - 10
19.06.2018 00:00:00 22,0 16,0 11 6 SSW - 10
18.06.2018 23:00:00 22,0 16,2 11 6 SSW 1018,0 10
18.06.2018 22:00:00 24,0 17,0 9 5 SSW - 10
18.06.2018 21:00:00 25,0 15,0 2 1 - - 10
18.06.2018 20:00:00 28,1 13,2 0 0 N 1016,0 10
18.06.2018 19:00:00 28,0 14,0 5 3 E - 10
18.06.2018 18:00:00 29,0 14,0 5 3 SE - 10
18.06.2018 17:00:00 28,4 15,2 4 2 - 1016,0 10
18.06.2018 16:00:00 29,0 15,0 8 4 - - 10
18.06.2018 15:00:00 27,0 17,0 5 3 - - 10
18.06.2018 14:00:00 25,9 15,2 4 2 - 1017,0 10
18.06.2018 13:00:00 25,0 18,0 8 4 WNW - 10
18.06.2018 12:00:00 22,0 17,0 9 5 WSW - 10
18.06.2018 11:00:00 21,4 17,5 11 6 W 1018,0 10
18.06.2018 10:00:00 21,0 18,0 8 4 SW - 10
18.06.2018 09:00:00 20,0 18,0 8 4 SW - 10
18.06.2018 08:00:00 20,2 16,3 11 6 W 1018,0 10
18.06.2018 07:00:00 20,0 15,0 9 5 SW - 10
18.06.2018 06:00:00 19,0 15,0 9 5 SW - 10
18.06.2018 05:00:00 19,5 14,6 11 6 SSW 1015,0 10
18.06.2018 04:00:00 20,0 15,0 9 5 SSW - 10
18.06.2018 03:00:00 20,0 15,0 18 10 SSW - 10
18.06.2018 02:00:00 21,2 15,1 13 7 SSW 1015,0 10
18.06.2018 01:00:00 22,0 16,0 13 7 SSW - 10
18.06.2018 00:00:00 23,0 17,0 9 5 S - 10
17.06.2018 23:00:00 23,1 17,2 8 4 SSW 1014,0 10
17.06.2018 22:00:00 23,0 16,0 8 4 ESE - 10
17.06.2018 21:00:00 26,0 17,0 5 3 E - 10
17.06.2018 20:00:00 28,4 15,3 5 3 ENE 1013,0 10
17.06.2018 19:00:00 30,0 16,0 2 1 - - 10
17.06.2018 18:00:00 29,0 16,0 9 5 - - 10
17.06.2018 17:00:00 30,1 16,1 8 4 N 1013,0 10
17.06.2018 16:00:00 30,0 13,0 9 5 E - 10
17.06.2018 15:00:00 29,0 14,0 5 3 - - 10
17.06.2018 14:00:00 29,1 14,0 8 4 WNW 1014,0 10
17.06.2018 13:00:00 28,0 16,0 9 5 NNW - 10
17.06.2018 12:00:00 28,0 17,0 8 4 WNW - 10
17.06.2018 11:00:00 26,2 14,6 9 5 W 1015,0 10
17.06.2018 10:00:00 24,0 15,0 9 5 W - 10
17.06.2018 09:00:00 21,0 15,0 11 6 WSW - 10
17.06.2018 08:00:00 19,3 14,3 9 5 SW 1015,0 10
17.06.2018 07:00:00 18,0 14,0 9 5 SW - 10
17.06.2018 06:00:00 17,0 14,0 11 6 SW - 10
17.06.2018 05:00:00 17,7 13,6 11 6 SW 1014,0 10
17.06.2018 04:00:00 18,0 14,0 15 8 SSW - 10
17.06.2018 03:00:00 19,0 14,0 15 8 SSW - 10
17.06.2018 02:00:00 18,9 14,2 15 8 SSW 1014,0 10
17.06.2018 01:00:00 19,0 15,0 13 7 SW - 10
17.06.2018 00:00:00 20,0 15,0 8 4 SSW - 10
16.06.2018 23:00:00 20,3 15,2 8 4 SSW 1013,0 10
16.06.2018 22:00:00 24,0 13,0 8 4 ENE - 10
16.06.2018 21:00:00 25,0 14,0 5 3 E - 10
16.06.2018 20:00:00 26,4 13,2 8 4 ENE 1012,0 10
16.06.2018 19:00:00 28,0 14,0 11 6 E - 10
16.06.2018 18:00:00 28,0 13,0 11 6 ENE - 10
16.06.2018 17:00:00 28,0 13,6 9 5 ESE 1012,0 10
16.06.2018 16:00:00 28,0 13,0 8 4 NE - 10
16.06.2018 15:00:00 28,0 14,0 8 4 - - 10
16.06.2018 14:00:00 27,3 14,8 5 3 - 1013,0 10
16.06.2018 13:00:00 27,0 15,0 9 5 E - 10
16.06.2018 12:00:00 26,0 15,0 8 4 - - 10
16.06.2018 11:00:00 25,5 14,1 5 3 - 1014,0 10
16.06.2018 10:00:00 24,0 15,0 5 3 NW - 10
16.06.2018 09:00:00 21,0 14,0 8 4 W - 10
16.06.2018 08:00:00 19,3 13,6 8 4 SSW 1014,0 10
16.06.2018 07:00:00 16,0 13,0 11 6 SSW - 10
16.06.2018 06:00:00 15,0 12,0 8 4 SW - 10
16.06.2018 05:00:00 15,6 12,5 8 4 SW 1014,0 40
16.06.2018 04:00:00 16,0 13,0 15 8 SW - 10
16.06.2018 03:00:00 17,0 13,0 4 2 - - 10
16.06.2018 02:00:00 17,0 13,2 9 5 SSW 1014,0 40
16.06.2018 01:00:00 18,0 13,0 13 7 SSW - 10
16.06.2018 00:00:00 18,0 14,0 9 5 SW - 10
15.06.2018 23:00:00 20,0 13,4 4 2 ESE 1013,0 10
15.06.2018 22:00:00 20,0 13,0 4 2 ENE - 10
15.06.2018 21:00:00 23,0 12,0 5 3 E - 10
15.06.2018 20:00:00 23,8 12,6 9 5 E 1012,0 10
15.06.2018 19:00:00 26,0 11,0 11 6 ESE - 10
15.06.2018 18:00:00 26,0 11,0 11 6 ESE - 10
15.06.2018 17:00:00 26,2 12,3 9 5 E 1012,0 10
15.06.2018 16:00:00 26,0 13,0 15 8 ESE - 10
15.06.2018 15:00:00 26,0 10,0 15 8 E - 10
15.06.2018 14:00:00 25,8 11,0 9 5 - 1012,0 10
15.06.2018 13:00:00 26,0 13,0 9 5 E - 10
15.06.2018 12:00:00 26,0 12,0 15 8 ENE - 10
15.06.2018 11:00:00 24,3 11,8 21 11 E 1013,0 10
15.06.2018 10:00:00 24,0 13,0 16 9 ENE - 10
15.06.2018 09:00:00 22,0 17,0 4 2 - - 10
15.06.2018 08:00:00 20,4 16,1 2 1 - 1013,0 10
15.06.2018 07:00:00 18,0 16,0 0 0 N - 10
15.06.2018 06:00:00 17,0 15,0 5 3 WSW - 10
15.06.2018 05:00:00 17,1 15,3 5 3 SW 1011,0 10
15.06.2018 04:00:00 18,0 15,0 9 5 S - 10
15.06.2018 03:00:00 18,0 16,0 9 5 S - 10
15.06.2018 02:00:00 17,7 15,7 4 2 - 1012,0 10
15.06.2018 01:00:00 18,0 16,0 11 6 S - 10
15.06.2018 00:00:00 19,0 17,0 9 5 SSW - 10
14.06.2018 23:00:00 19,3 16,6 5 3 SSW 1011,0 10
14.06.2018 22:00:00 20,0 16,0 4 2 - - 10
14.06.2018 21:00:00 21,0 16,0 5 3 ESE - 10
14.06.2018 20:00:00 23,5 17,0 8 4 E 1010,0 10
14.06.2018 19:00:00 24,0 15,0 9 5 E - 10
14.06.2018 18:00:00 24,0 15,0 8 4 E - 10
14.06.2018 17:00:00 24,2 16,0 11 6 NE 1009,0 10
14.06.2018 16:00:00 23,0 16,0 4 2 - - 10
14.06.2018 15:00:00 22,0 19,0 5 3 NNW - 10
14.06.2018 14:00:00 21,9 17,1 8 4 NNW 1010,0 10
14.06.2018 13:00:00 21,0 18,0 8 4 SE - 10
14.06.2018 12:00:00 22,0 19,0 11 6 W - 10
14.06.2018 11:00:00 19,3 17,1 9 5 WSW 1010,0 10
14.06.2018 10:00:00 17,0 17,0 11 6 SW - 8
14.06.2018 09:00:00 18,0 16,0 2 1 ESE - 8
14.06.2018 08:00:00 17,6 16,6 11 6 SW 1009,0 10
14.06.2018 07:00:00 17,0 17,0 11 6 WSW - 10

tt = Température de l'air
td = dewpoint
ff = Vitesse du vent
dd = Direction du vent
ppp = reduced air pressure
vv = visibility

stations d'obs. à proximité